Flag for Germany Weather past 2 weeks in Augsburg, Bavaria, Germany

Now
90 °F

Sunny.


Feels Like: 88 °F
Forecast: 62 / 89 °F
Wind: 3 mph from North

Location: Augsburg Airport

Current Time: Aug 29, 2015 at 4:59:48 PM

Latest Report: Aug 29, 2015 at 4:20 PM


Visibility: 10 mi

Pressure: 30.18 "Hg

Humidity: 31%

Dew point: 55 °F

Location of AugsburgLocation

Historic Weather in Augsburg — Graph

°F

Augsburg temperature yesterday

Maximum temperature yesterday: 86 °F (at 3:20 PM)
Minimum temperature yesterday: 63 °F (at 6:50 AM)
Average temperature yesterday: 78 °F

Past Weeks' High & Low Weather Summary

 TemperatureHumidityPressure
High88 °F (Aug 14, 3:20 PM)100% (Aug 14, 7:20 PM)30.30 "Hg (Aug 14, 7:20 PM)
Low45 °F (Aug 26, 6:20 AM)27% (Aug 22, 4:20 PM)29.74 "Hg (Aug 24, 2:20 PM)
Average67 °F65%30.03 "Hg
* Reported Aug 14 3:20 PM — Aug 29 3:20 PM, Augsburg, Weather by CustomWeather, © 2015

Note: Actual official high and low records may vary slightly from our data, if they occured in-between our weather recording intervals... More about our weather records

Advertising

Augsburg weather history for previous 24 hours

 ConditionsComfort  
Time TempWeatherWind HumidityBarometerVisibility
3:20 PM
Sat, Aug 29
88 °FSunny.3 mph35%30.18 "Hg10 mi
2:50 PM88 °FPassing clouds.3 mph38%30.21 "HgN/A
2:20 PM86 °FSunny.3 mph40%30.21 "Hg10 mi
1:50 PM84 °FPassing clouds.5 mph43%30.21 "HgN/A
1:20 PM82 °FPassing clouds.6 mph45%30.24 "HgN/A
12:50 PM81 °FPassing clouds.6 mph48%30.24 "HgN/A
11:50 AM79 °FPassing clouds.8 mph54%30.24 "HgN/A
11:20 AM79 °FPassing clouds.9 mph54%30.24 "HgN/A
10:50 AM77 °FPassing clouds.7 mph57%30.24 "HgN/A
9:20 AM72 °FPassing clouds.7 mph69%30.24 "HgN/A
8:50 AM70 °FSunny.2 mph78%30.24 "Hg10 mi
7:50 AM63 °FSunny.1 mph100%30.24 "Hg10 mi
7:20 AM59 °FFog.3 mph100%30.24 "HgN/A
6:50 AM55 °FFog.1 mph100%30.24 "HgN/A
8:50 PM
Fri, Aug 28
73 °FSunny.5 mph61%30.15 "Hg10 mi
8:20 PM75 °FSunny.6 mph54%30.12 "Hg10 mi
7:50 PM79 °FSunny.6 mph48%30.12 "Hg10 mi
7:20 PM81 °FSunny.10 mph45%30.12 "Hg10 mi
6:50 PM82 °FPassing clouds.5 mph42%30.09 "HgN/A
6:20 PM86 °FPassing clouds.5 mph35%30.09 "HgN/A
5:50 PM86 °FPassing clouds.6 mph35%30.09 "HgN/A
5:20 PM84 °FPassing clouds.9 mph37%30.09 "HgN/A
4:50 PM84 °FSunny.6 mph37%30.12 "Hg10 mi
4:20 PM84 °FPassing clouds.9 mph35%30.12 "HgN/A
Weather by CustomWeather, © 2015

See weather overviewHow to use our weather pages